Weather History for Vero Beach, FL

Change the Weather History Date:

Monday, March 18, 2013

  Actual Average Record
Temperature  
Mean Temperature 73 °F 68 °F  
Max Temperature 84 °F 77 °F 89 °F (1965)
Min Temperature 62 °F 58 °F 42 °F (1994)
Degree Days  
Heating Degree Days 0 2  
Month to date heating degree days 118 41  
Since 1 July heating degree days 346 426  
Cooling Degree Days 8 4  
Month to date cooling degree days 18 72  
Year to date cooling degree days 253 211  
Growing Degree Days 23 (Base 50)    
Moisture  
Dew Point 62 °F    
Average Humidity 67    
Maximum Humidity 87    
Minimum Humidity 47    
Precipitation  
Precipitation 0.02 in 0.14 in 3.53 in (1960)
Month to date precipitation 0.05 2.29  
Year to date precipitation 2.60 7.46  
Sea Level Pressure  
Sea Level Pressure 30.02 in    
Wind  
Wind Speed 9 mph (South)    
Max Wind Speed 28 mph    
Max Gust Speed 30 mph    
Visibility 10 miles    
Events Rain , Thunderstorm    
T = Trace of Precipitation, MM = Missing Value Source: NWS Daily Summary

Daily Weather History Graph

Daily Weather History Graph

Search for Another Location

Airport:

Trip Planner

Search our weather history database for the weather conditions in past years. The results will help you decide how hot, cold, wet, or windy it might be!

Date:

Astronomy

Mar. 18, 2013 Rise Set
Actual Time 7:27 AM EDT 7:32 PM EDT
Civil Twilight 7:04 AM EDT 7:55 PM EDT
Nautical Twilight 6:37 AM EDT 8:22 PM EDT
Astronomical Twilight 6:09 AM EDT 8:49 PM EDT
Moon 11:54 AM EDT (3/18) 1:01 AM EDT (3/18)
Length of Visible Light 12h 51m
Length of Day
12h 04m
Waxing Crescent, 40% of the Moon is Illuminated
Mar 18
Waxing Crescent
Mar 19
First Quarter
Mar 27
Full
Apr 3
Last Quarter
Apr 10
New

Hourly Weather History & Observations

Time (EDT) Temp. Heat Index Dew Point Humidity Pressure Visibility Wind Dir Wind Speed Gust Speed Precip Events Conditions
12:53 AM 69.1 °F - 57.0 °F 65% 30.08 in 10.0 mi South 5.8 mph - N/A   Partly Cloudy
1:53 AM 68.0 °F - 57.9 °F 70% 30.06 in 10.0 mi SSE 5.8 mph - N/A   Clear
2:53 AM 66.9 °F - 60.1 °F 79% 30.07 in 10.0 mi WSW 3.5 mph - 0.00 in   Mostly Cloudy
3:53 AM 66.9 °F - 59.0 °F 76% 30.01 in 10.0 mi SE 10.4 mph - 0.00 in   Mostly Cloudy
4:53 AM 69.1 °F - 60.1 °F 73% 30.02 in 10.0 mi South 5.8 mph - 0.00 in Rain Light Rain
5:22 AM 69.8 °F - 60.8 °F 73% 30.04 in 10.0 mi SW 4.6 mph - 0.00 in Thunderstorm Thunderstorm
5:37 AM 68.0 °F - 60.8 °F 78% 30.04 in 10.0 mi WSW 4.6 mph - 0.00 in   Mostly Cloudy
5:53 AM 66.0 °F - 61.0 °F 84% 30.05 in 10.0 mi SSW 4.6 mph - 0.00 in   Partly Cloudy
6:53 AM 64.0 °F - 60.1 °F 87% 30.04 in 10.0 mi ENE 4.6 mph - N/A   Mostly Cloudy
7:53 AM 66.0 °F - 61.0 °F 84% 30.06 in 10.0 mi South 5.8 mph - N/A   Clear
8:53 AM 70.0 °F - 62.1 °F 76% 30.07 in 10.0 mi South 6.9 mph - N/A   Mostly Cloudy
9:53 AM 73.9 °F - 63.0 °F 68% 30.07 in 10.0 mi South 10.4 mph - N/A   Mostly Cloudy
10:53 AM 77.0 °F - 63.0 °F 62% 30.06 in 10.0 mi SSE 15.0 mph 23.0 mph N/A   Mostly Cloudy
11:53 AM 79.0 °F - 62.1 °F 56% 30.05 in 10.0 mi SSE 13.8 mph 19.6 mph N/A   Mostly Cloudy
12:53 PM 81.0 °F 81.7 °F 61.0 °F 50% 30.03 in 10.0 mi South 9.2 mph - N/A   Scattered Clouds
1:53 PM 81.0 °F 81.7 °F 61.0 °F 50% 30.01 in 10.0 mi SSW 8.1 mph - N/A   Mostly Cloudy
2:53 PM 82.9 °F 83.3 °F 61.0 °F 47% 29.99 in 10.0 mi SSW 9.2 mph - N/A   Mostly Cloudy
3:53 PM 77.0 °F - 66.0 °F 69% 29.97 in 10.0 mi SE 9.2 mph - N/A   Overcast
4:53 PM 81.0 °F 81.9 °F 62.1 °F 52% 29.93 in 10.0 mi SSW 9.2 mph - N/A   Partly Cloudy
5:53 PM 77.0 °F - 66.0 °F 69% 29.97 in 10.0 mi South 11.5 mph - N/A   Partly Cloudy
6:53 PM 77.0 °F - 55.9 °F 48% 29.98 in 10.0 mi South 11.5 mph - N/A   Overcast
7:53 PM 70.0 °F - 62.1 °F 76% 29.99 in 10.0 mi SSW 11.5 mph - 0.00 in   Mostly Cloudy
8:53 PM 68.0 °F - 64.9 °F 90% 29.97 in 10.0 mi South 15.0 mph - 0.01 in Rain Light Rain
9:53 PM 69.1 °F - 64.0 °F 84% 29.96 in 10.0 mi SSW 5.8 mph - 0.01 in   Mostly Cloudy
10:53 PM 68.0 °F - 64.0 °F 87% 29.99 in 10.0 mi SW 6.9 mph - N/A   Partly Cloudy
11:53 PM 66.9 °F - 63.0 °F 87% 29.93 in 10.0 mi South 10.4 mph - N/A   Clear